Regional Weather Roundup
Issued by NWS

Home | Current Version | Previous Version | Graphics & Text | Print | Product List | Glossary On
Versions: 1 2 3 4 5 6 7 8 9 10 11 12 13 14 15 16 17 18 19 20 21 22 23 24 25 26 27 28 29 30 31 32 33 34 35 36 37 38 39 40 41 42 43 44 45 46 47 48 49 50
000
ASUS43 KLSX 280110
RWRMO

WEATHER SUMMARY FOR MISSOURI
NATIONAL WEATHER SERVICE SPRINGFIELD MO
800 PM CDT SUN MAY 27 2018

NOTE: "FAIR" INDICATES FEW OR NO CLOUDS BELOW 12,000 FEET WITH NO
       SIGNIFICANT WEATHER AND/OR OBSTRUCTIONS TO VISIBILITY.
       CURRENT SKY AND/OR WEATHER CONDITIONS ARE NOT AVAILABLE FOR
       CHILLICOTHE AND FARMINGTON.

MOZ001>031-035>038-043-044-053-054-280200-
...NORTHERN AND WESTERN MISSOURI...

CITY           SKY/WX    TMP DP  RH WIND       PRES   REMARKS
KANSAS CTY INT MOCLDY    84  73  69 S9        29.86S HX  90
KANSAS C DTWN  MOCLDY    88  65  46 S8        29.84S HX  90
LEE`S SUMMIT   CLOUDY    86  70  58 S6        29.87S HX  90
ST JOSEPH      CLOUDY    90  66  45 S8        29.82F HX  92
CHILLICOTHE      N/A     91  68  46 CALM      29.84R HX  95
KIRKSVILLE     CLOUDY    86  70  58 E6        29.87R HX  90

$$
MOZ066>068-077>081-088>096-101>105-280200-
...SOUTHWEST MISSOURI...

CITY           SKY/WX    TMP DP  RH WIND       PRES   REMARKS
SPRINGFIELD    PTCLDY    85  66  53 S5        29.90R
JOPLIN         CLOUDY    85  70  60 SE3       29.88R
BRANSON        MOCLDY    81  70  69 E7        29.92R

$$
MOZ032>034-039>042-045>050-055>058-069>072-280200-
...CENTRAL MISSOURI...

CITY           SKY/WX    TMP DP  RH WIND       PRES   REMARKS
COLUMBIA       PTCLDY    86  69  56 SW3       29.86F HX  90
JEFFERSON CITY CLOUDY    88  66  48 E3        29.85S HX  90
ROLLA          CLEAR     85  70  60 CALM      29.90R
SEDALIA        CLEAR     86  71  60 S6        29.88S HX  91
WHITEMAN AFB   CLEAR     83  74  74 S6        29.83S
WARRENSBURG    PTCLDY    84  70  61 SE5       29.86S
OSAGE BEACH    CLEAR     82  76  81 CALM      29.89S

$$
MOZ051-052-059>065-280200-
...EAST CENTRAL MISSOURI...

CITY           SKY/WX    TMP DP  RH WIND       PRES   REMARKS
ST LOUIS INTL  CLOUDY    84  71  65 SE5       29.87R
SPIRIT OF STL  PTCLDY    80  75  84 CALM      29.86R
ST CHARLES     CLOUDY    84  70  62 SE5       29.86R

$$
MOZ072>076-082>087-097>100-106>115-280200-
...SOUTH CENTRAL AND SOUTHEAST MISSOURI...

CITY           SKY/WX    TMP DP  RH WIND       PRES   REMARKS
CAPE GIRARDEAU FAIR      86  71  60 CALM      29.86R HX  91
FARMINGTON     CLOUDY    79  69  71 CALM      29.91R
POPLAR BLUFF   FAIR      83  74  74 CALM      29.85R
WEST PLAINS    CLEAR     82  70  66 S3        29.91S

$$



USA.gov is the U.S. government's official web portal to all federal, state and local government web resources and services.